Regional Weather Roundup
Issued by NWS Memphis, TN

Home | Current Version | Previous Version | Text Only | Print | Product List | Glossary On
Versions: 1 2 3 4 5 6 7 8 9 10 11 12 13 14 15 16 17 18 19 20 21 22 23 24 25 26 27 28 29 30 31 32 33 34 35 36 37 38 39 40 41 42 43 44 45 46 47 48 49 50
000
ASUS44 KMEG 041110
RWRMEG
MEMPHIS CWA HOURLY WEATHER ROUNDUP
NATIONAL WEATHER SERVICE MEMPHIS TN
500 AM CST SUN DEC 04 2016

...WEST TENNESSEE...

CITY           SKY/WX    TMP DP  RH WIND       PRES   REMARKS
MEMPHIS INTL   LGT RAIN  43  42  97 E10       30.00F FOG
NWS MEMPHIS      N/A     42 N/A N/A MISG        N/A
JACKSON        CLOUDY    42  32  67 E7        30.05F
BOLIVAR        CLOUDY    41  41 100 N6        30.04F FOG
LEXINGTON      CLOUDY    39  39 100 NE5       30.06F
DYERSBURG      CLOUDY   N/A N/A N/A E6        30.05F
UNION CITY     CLOUDY    37  37 100 E6        30.07R WCI  33
PARIS          CLOUDY    37  37 100 E9        30.07F WCI  31
HUNTINGDON     CLOUDY    41  39  93 E8        30.06F FOG


...EASTERN ARKANSAS...

CITY           SKY/WX    TMP DP  RH WIND       PRES   REMARKS
JONESBORO      CLOUDY    41  39  93 NE12      30.03F
WEST MEMPHIS   CLOUDY    42  42 100 E13       29.99F
BATESVILLE     CLOUDY    39  37  93 NE6       30.03F WCI  35
NEWPORT        CLOUDY    41  40  96 NE10      30.03F
WALNUT RIDGE   CLOUDY    39  36  87 NE10      30.03F WCI  32
BLYTHEVILLE    CLOUDY    42  39  89 E12       30.03F
SEARCY         CLOUDY    41  41 100 NE13      30.02F
STUTTGART      CLOUDY    45  39  81 NE10      29.97F
PINE BLUFF     CLOUDY    45  44  97 E6        29.97R
MONTICELLO     CLOUDY    45  43  93 E12       29.93F


...NORTH MISSISSIPPI...

CITY           SKY/WX    TMP DP  RH WIND       PRES   REMARKS
TUPELO         LGT RAIN  45  43  93 NE10      30.01F
OXFORD         RAIN      43  41  93 NE8       30.03F
BATESVILLE     RAIN      46  45  96 CALM      30.03F
TUNICA         CLOUDY    43  41  93 E10       29.99F
CLARKSDALE     CLOUDY    46  46 100 E12       29.98F FOG
CORINTH        LGT RAIN  45  43  93 N5        30.03F
GREENWOOD      LGT RAIN  46  44  93 N5        29.99R FOG
COLUMBUS       CLOUDY    46  43  91 E7        29.99F
STARKVILLE     CLOUDY    45  43  93 E7        30.01F
GOLDEN TRIANGL CLOUDY    45  39  81 E10       29.95S


...SOUTHEAST MISSOURI...

CITY           SKY/WX    TMP DP  RH WIND       PRES   REMARKS
KENNETT        CLOUDY    41  41 100 E13       30.03F FOG
WEST PLAINS    CLOUDY    37  36  96 E6        30.02F FOG     WCI  32
POPLAR BLUFF   CLOUDY    39  38  96 NE8       30.06F FOG     WCI  33
CAPE GIRARDEAU CLOUDY    39  35  86 E6        30.08F WCI  35


...NORTHWEST ALABAMA...

CITY           SKY/WX    TMP DP  RH WIND       PRES   REMARKS
MUSCLE SHOALS  RAIN      47  42  83 E17G25    30.05F


...MIDDLE TENNESSEE...

CITY           SKY/WX    TMP DP  RH WIND       PRES   REMARKS
NASHVILLE      CLOUDY    42  40  92 E7        30.11S
CLARKSVILLE    LGT RAIN  40  37  89 E5        30.12F FOG
COLUMBIA       CLOUDY   N/A N/A N/A NW5       30.07R


...WESTERN KENTUCKY...

CITY           SKY/WX    TMP DP  RH WIND       PRES   REMARKS
PADUCAH        CLOUDY    39  36  89 E8        30.09F FOG     WCI  33
FORT CAMPBELL  DRIZZLE   39  39 100 E8        30.10F FOG     WCI  34


...CENTRAL ARKANSAS...

CITY           SKY/WX    TMP DP  RH WIND       PRES   REMARKS
LITTLE ROCK    CLOUDY    42  42 100 NE9       29.99F


SKY/WX REPORTED AS FAIR MEANS FEW OR NO CLOUDS BELOW
12 THOUSAND FEET.





USA.gov is the U.S. government's official web portal to all federal, state and local government web resources and services.